TimeEDT,TemperatureF,Dew PointF,Humidity,Sea Level PressureIn,VisibilityMPH,Wind Direction,Wind SpeedMPH,Gust SpeedMPH,PrecipitationIn,Events,Conditions,WindDirDegrees,DateUTC
12:53 AM,35.1,28.0,76,30.26,10.0,SW,3.5,-,N/A,,Overcast,230,2013-03-29 04:53:00
1:53 AM,34.0,28.0,79,30.26,10.0,SW,3.5,-,N/A,,Overcast,230,2013-03-29 05:53:00
2:53 AM,34.0,28.0,79,30.25,10.0,SW,3.5,-,N/A,,Overcast,220,2013-03-29 06:53:00
3:53 AM,35.1,28.0,76,30.24,10.0,SW,3.5,-,N/A,,Overcast,220,2013-03-29 07:53:00
4:53 AM,35.1,27.0,72,30.24,10.0,Calm,Calm,-,N/A,,Overcast,0,2013-03-29 08:53:00
5:53 AM,34.0,28.0,79,30.24,10.0,Calm,Calm,-,N/A,,Overcast,0,2013-03-29 09:53:00
6:53 AM,34.0,28.0,79,30.24,9.0,Calm,Calm,-,N/A,,Overcast,0,2013-03-29 10:53:00
7:53 AM,34.0,28.0,79,30.25,8.0,South,3.5,-,N/A,,Overcast,190,2013-03-29 11:53:00
8:53 AM,35.1,28.0,76,30.25,8.0,SSW,4.6,-,N/A,,Overcast,200,2013-03-29 12:53:00
9:53 AM,37.0,28.9,73,30.25,7.0,WSW,5.8,-,N/A,,Overcast,240,2013-03-29 13:53:00
10:53 AM,39.0,28.9,67,30.25,9.0,WSW,6.9,-,N/A,,Overcast,250,2013-03-29 14:53:00
11:53 AM,43.0,25.0,49,30.24,10.0,NW,9.2,-,N/A,,Overcast,310,2013-03-29 15:53:00
12:53 PM,45.0,23.0,42,30.23,10.0,West,10.4,16.1,N/A,,Clear,280,2013-03-29 16:53:00
1:53 PM,44.1,23.0,43,30.22,10.0,WNW,5.8,-,N/A,,Overcast,290,2013-03-29 17:53:00
2:53 PM,45.0,24.1,44,30.20,10.0,Variable,3.5,-,N/A,,Overcast,0,2013-03-29 18:53:00
3:53 PM,45.0,25.0,46,30.19,10.0,NNW,9.2,-,N/A,,Partly Cloudy,330,2013-03-29 19:53:00
4:53 PM,45.0,24.1,44,30.19,10.0,Variable,6.9,-,N/A,,Clear,0,2013-03-29 20:53:00
5:53 PM,45.0,24.1,44,30.19,10.0,Variable,5.8,-,N/A,,Partly Cloudy,0,2013-03-29 21:53:00
6:53 PM,43.0,21.9,43,30.20,10.0,NW,9.2,-,N/A,,Clear,310,2013-03-29 22:53:00
7:53 PM,39.9,21.0,47,30.21,10.0,NW,3.5,-,N/A,,Clear,310,2013-03-29 23:53:00
8:53 PM,39.0,21.9,50,30.22,10.0,Calm,Calm,-,N/A,,Clear,0,2013-03-30 00:53:00
9:53 PM,37.0,21.9,54,30.23,10.0,Calm,Calm,-,N/A,,Clear,0,2013-03-30 01:53:00
10:53 PM,37.0,21.9,54,30.23,10.0,Calm,Calm,-,N/A,,Clear,0,2013-03-30 02:53:00
11:53 PM,35.1,21.9,59,30.22,10.0,Calm,Calm,-,N/A,,Clear,0,2013-03-30 03:53:00